OpenBCM V1.08-3-g9b42 (Linux)

Packet Radio Mailbox

OK0NBR

[Sao_Jose_dos_Campo]

 Login: GUEST





  
I0OJJ  > KEPS     15.12.25 22:03l 326 Lines 15608 Bytes #288 (0) @ AMSAT
BID : ORB25350.1
Read: GUEST
Subj: 2Line Orbital Elements 25350.AMSAT
Path: OK0NBR<IW0QNL<HB9ON<DK0WUE<PD0LPM<PI8ZTM<CX2SA<EA2RCF<I0OJJ
Sent: 251216/0021z @:I0OJJ.ITA.EU [Rome] obcm1.08-11-2-gbfe9
From: I0OJJ @ I0OJJ.ITA.EU (Gustavo)
To:   KEPS @ AMSAT
X-Info: This message was generated automatically


QST de W1STR

AMSAT Orbital Elements for Amateur Satellites in TLE Format
From Orbital Analysis Office
New England Sci-Tech STEM Education Center
Natick MA December 16, 2025
To all radio amateurs


These element sets describe the orbits of various satellites 
in use by the amateur radio community. For details see:
www.amsat.org/keplerian-elements-formats/

A daily update of element sets is available at:
www.amsat.org/tle/daily-bulletin.txt
or without bulletin text:
www.amsat.org/tle/dailytle.txt


AO-07
1 07530U 74089B   25349.03724822 -.00000025  00000-0  13488-3 0  9999
2 07530 101.9966 355.3291 0012375 122.3157 244.7376 12.53694218337441
UO-11
1 14781U 84021B   25349.34503436  .00001088  00000-0  11811-3 0  9999
2 14781  97.7811 312.3331 0009256  74.9895 285.2347 14.90152009229742
AO-27
1 22825U 93061C   25349.16636885  .00000125  00000-0  64930-4 0  9998
2 22825  98.7144  51.4394 0007314 281.6015  78.4346 14.30877537680683
FO-29
1 24278U 96046B   25349.13897629 -.00000040  00000-0 -34050-5 0  9999
2 24278  98.5461 217.9525 0349253 213.7412 144.1055 13.53262913448275
GO-32
1 25397U 98043D   25348.95462802  .00000110  00000-0  67884-4 0  9997
2 25397  98.9921 332.2179 0001999  53.7481 306.3881 14.24377663425103
ISS
1 25544U 98067A   25349.24971864  .00007132  00000-0  13467-3 0  9991
2 25544  51.6306 130.0501 0003193 251.9008 108.1633 15.49601155543241
NO-44
1 26931U 01043C   25349.32066174  .00000211  00000-0  10960-3 0  9994
2 26931  67.0515 359.8041 0007427 269.7634  90.2617 14.31856251264120
SO-50
1 27607U 02058C   25349.30156047  .00001784  00000-0  23068-3 0  9998
2 27607  64.5542 337.6808 0072346 296.1338  63.2337 14.82402128237197
CO-55
1 27844U 03031E   25349.25971455  .00000406  00000-0  19503-3 0  9994
2 27844  98.6764 355.1302 0009649   6.2771 353.8527 14.24181404165494
CO-57
1 27848U 03031J   25349.29774373  .00000342  00000-0  16942-3 0  9995
2 27848  98.6792 355.0277 0009873  23.7561 336.4071 14.23489145165212
RS-22
1 27939U 03042A   25349.36960715  .00001461  00000-0  23561-3 0  9991
2 27939  98.3365 163.6390 0012161 127.7424 347.6647 14.72980178188485
CO-58
1 28895U 05043F   25349.36477788  .00001578  00000-0  25980-3 0  9995
2 28895  98.2718 136.4867 0015326  70.5258 289.7603 14.71911294 74700
CO-65
1 32785U 08021C   25349.36096494  .00004842  00000-0  32684-3 0  9994
2 32785  97.8076 322.4865 0007894 299.9392  60.1050 15.07077621957486
CO-66
1 32791U 08021J   25349.19962830  .00011931  00000-0  47591-3 0  9998
2 32791  97.7440 334.4298 0001624 193.5206 166.5987 15.25345478959174
RS-30
1 32953U 08025A   25349.36637297  .00000044  00000-0  24419-3 0  9994
2 32953  82.5017 109.7891 0018923 355.2988   4.7911 12.43172174796854
SRMSAT
1 37841U 11058D   25349.34827455  .00000435  00000-0  92524-4 0  9997
2 37841  19.9716  92.1629 0011822 342.2389  56.0239 14.11512323731810
ZACUBE-1
1 39417U 13066B   25349.32832255  .00002958  00000-0  24414-3 0  9995
2 39417  97.8058 305.8774 0041984 138.7633 221.6774 14.99110204653165
Delfi-N3xt
1 39428U 13066N   25349.29006762  .00004823  00000-0  45385-3 0  9992
2 39428  97.8343 265.1753 0080838  97.0847 263.9572 14.91862753647178
GOMX-1
1 39430U 13066Q   25349.35448637  .00002592  00000-0  40073-3 0  9993
2 39430  97.6593 196.3164 0129566 308.1601  50.7987 14.68600291642924
LO-74
1 39440U 13066AA  25349.35473435  .00003083  00000-0  30041-3 0  9998
2 39440  97.8706 293.0229 0057962 277.0207  82.4422 14.91999807649569
AO-73
1 39444U 13066AE  25348.84766109  .00006311  00000-0  42942-3 0  9998
2 39444  97.8063 312.1518 0040622 108.8629 251.7009 15.05998371651888
DTUSAT-2
1 40030U 14033W   25349.18488800  .00006008  00000-0  35593-3 0  9990
2 40030  98.0752 330.7891 0009522 132.8636 227.3394 15.11776066624853
EO-80
1 40032U 14033Y   25349.19540677  .00005370  00000-0  31783-3 0  9992
2 40032  98.0634 330.1904 0009919  83.1116 277.1241 15.11862041624835
LILACSAT-2
1 40908U 15049K   25349.32728001  .00011656  00000-0  25051-3 0  9991
2 40908  97.4915  14.7893 0007471 187.4334 172.6805 15.44808294567304
IO-86
1 40931U 15052B   25151.18580175  .00001241  00000-0  78118-4 0  9996
2 40931   6.0006  24.0987 0012733 338.8432  21.1169 14.78805930523159
Horyu-4
1 41340U 16012D   25349.19346362  .00038911  00000-0  64558-3 0  9992
2 41340  30.9942 293.1310 0006944 256.9396 103.0478 15.50828415541937
Lapan A3
1 41603U 16040E   25349.24287108  .00003470  00000-0  11613-3 0  9999
2 41603  97.1428 346.7083 0009371 324.0598  36.0013 15.31574336526643
CAS-2T
1 41847U 16066G   25349.18655967  .00001130  00000-0  16924-3 0  9993
2 41847  98.4036  61.9030 0343078 327.7345  30.3260 14.44136237478234
TechnoSat
1 42829U 17042E   25349.32416114  .00003267  00000-0  24345-3 0  9993
2 42829  97.4046 149.4186 0018269   5.5212 354.6212 15.03436898459065
AO-91
1 43017U 17073E   25349.16476193  .00007943  00000-0  37711-3 0  9998
2 43017  97.4953 215.3057 0159238 242.0262 116.4775 15.08921140437605
S-Net D
1 43186U 18014G   25349.26490109  .00004624  00000-0  25544-3 0  9999
2 43186  97.5490 250.3324 0007072 303.8583  56.1975 15.14388208430902
S-Net B
1 43187U 18014H   25349.27299866  .00004895  00000-0  27035-3 0  9995
2 43187  97.5495 250.3209 0007709 297.2088  62.8358 15.14363525430907
S-Net A
1 43188U 18014J   25349.26459827  .00004613  00000-0  25479-3 0  9998
2 43188  97.5505 250.4895 0007567 298.4145  61.6323 15.14394736430908
S-Net C
1 43189U 18014K   25349.27597111  .00005026  00000-0  27749-3 0  9990
2 43189  97.5518 250.5464 0008915 288.1339  71.8922 15.14358566429452
Ten-Koh
1 43677U 18084G   25349.24345121  .00002589  00000-0  20330-3 0  9998
2 43677  98.0744 168.9648 0009273  17.5976 342.5567 15.01836047388544
PO-101
1 43678U 18084H   25349.32137213  .00001728  00000-0  14622-3 0  9990
2 43678  98.1026 172.8874 0007655  39.9124 320.2660 14.99449542388654
QO-100
1 43700U 18090A   25349.20629856  .00000000  00000-0  00000-0 0  9993
2 43700   0.0243 358.5692 0000914 281.7772 263.8348  1.00269249 25836
MinXSS-2
1 43758U 18099A   25349.16788517  .00018078  00000-0  53938-3 0  9995
2 43758  97.4798  56.5655 0009097 202.9424 157.1413 15.34656020385799
AO-95
1 43770U 18099N   25349.15986604  .00008052  00000-0  35595-3 0  9995
2 43770  97.4683  45.4245 0008200 276.3723  83.6579 15.21943950385186
SNUSat 2
1 43782U 18099AA  25349.09725986  .00006757  00000-0  33209-3 0  9995
2 43782  97.4360  40.4635 0010218 213.7448 146.3137 15.18320759385066
SnugLite
1 43784U 18099AC  25349.08066614  .00008444  00000-0  36906-3 0  9994
2 43784  97.4173  40.5024 0002497 189.9587 170.1600 15.22337743385269
ITASat 1
1 43786U 18099AE  25349.13998138  .00005040  00000-0  26456-3 0  9995
2 43786  97.4330  39.4013 0011768 274.2985  85.6903 15.16112721384997
EAGLET 1
1 43790U 18099AJ  25349.08867222  .00004063  00000-0  24589-3 0  9992
2 43790  97.4528  38.5657 0010074 260.5764  99.4327 15.11139883384511
ESEO
1 43792U 18099AL  25349.07766622  .00002130  00000-0  16035-3 0  9995
2 43792  97.4223  29.1663 0011286 239.5400 120.4712 15.03486229384138
JO-97
1 43803U 18099AX  25349.10933874  .00011719  00000-0  44552-3 0  9995
2 43803  97.4425  46.9178 0006063 192.7922 167.3164 15.26926838385478
Suomi 100
1 43804U 18099AY  25349.15169299  .00008280  00000-0  35063-3 0  9999
2 43804  97.4488  45.5934 0010395 202.9084 157.1691 15.23374515385354
ISAT
1 43879U 18111D   25349.33274539  .00028053  00000-0  65787-3 0  9996
2 43879  97.5907 269.1347 0003593 235.6455 124.4451 15.42032145382643
UWE-4
1 43880U 18111E   25349.30700526  .00018103  00000-0  54235-3 0  9996
2 43880  97.5859 265.9023 0007202 265.0066  95.0355 15.34542787382478
Sparrow
1 43881U 18111F   25349.31350315  .00030405  00000-0  65989-3 0  9992
2 43881  97.6092 272.8849 0002431 317.7301  42.3759 15.44333297382768
Prox-1
1 44339U 19036A   25349.05939174  .00008882  00000-0  97963-3 0  9996
2 44339  23.9957 259.4081 0006516  68.5530 291.5663 14.85248184346015
Taurus 1
1 44530U 19059C   25349.35928925  .00005464  00000-0  93607-3 0  9993
2 44530  98.6222 138.3561 0009075 166.7190 193.4254 14.69197370331625
Duchifat 3
1 44854U 19089C   25342.89580904  .10801921  36355-5  10723-2 0  9995
2 44854  36.9163 249.0625 0006835 253.5286 106.4749 16.36980482331539
TO-108
1 44881U 19093C   25349.39376291  .00000843  00000-0  10220-3 0  9993
2 44881  97.7759  60.9660 0013142 337.5305  22.5334 14.86110679324118
FloripaSat 1
1 44885U 19093G   25349.30987969  .00006359  00000-0  49827-3 0  9991
2 44885  97.8039  77.5151 0010233 328.5010  31.5600 15.01308750325039
RS-44
1 44909U 19096E   25349.35952239  .00000006  00000-0 -16436-4 0  9993
2 44909  82.5213 101.8679 0217134 213.9485 144.7563 12.79746150278831
SALSAT
1 46495U 20068K   25349.21952746  .00005893  00000-0  22954-3 0  9993
2 46495  97.8782 336.6259 0009088 218.9721 141.0862 15.26370917287268
CSS (TIANHE-1)
1 48274U 21035A   25349.34074172  .00017163  00000-0  21538-3 0  9997
2 48274  41.4685   0.9167 0007961  52.8673 307.2892 15.59296400264433
TUBIN
1 48900U 21059X   25349.23810824  .03904209  26688-5  65555-3 0  9990
2 48900  97.6594 178.2202 0005622 265.0622  95.0032 16.33269075249739
CUTE
1 49263U 21088D   25349.21453040  .00030733  00000-0  39902-3 0  9997
2 49263  97.4347  72.1740 0004461 259.7487 100.3266 15.58768202233682
TeikyoSat 4
1 49396U 21102B   25349.32149806  .00002128  00000-0  13958-3 0  9995
2 49396  97.3899  20.8241 0011646 199.0761 161.0033 15.08653895224996
Z-Sat
1 49399U 21102E   25349.35061473  .00003883  00000-0  20216-3 0  9998
2 49399  97.3589  25.2156 0017599 162.8747 197.3084 15.16464667225562
